This demonstration page uses our WeatherBlox Daily Observations layout. Learn more.

Left ArrowRight Arrow

Hourly Observations for July 20, 2018

Temp ( °F °C ) Dew Point ( °F °C ) Humidity (%) Winds ( mph kmh ) Pressure ( in mb ) Visibility ( mi km ) Precip ( " mm )
12:15 am 00:15 Cloudy with Light Rain 65 18.3 56 13.3 73 73 E 28 44 29.85 1011 10 16 0.02 0.51
12:53 am 00:53 Clear 65 18.3 56 13.3 73 73 ESE 16 26 29.92 1013 10 16 0.02 0.51
1:53 am 01:53 Mostly Cloudy 64 17.8 56 13.3 75 75 ESE 15 24 29.92 1013 10 16 0.00 0.00
2:53 am 02:53 Clear 66 18.9 54 12.2 65 65 ESE 13 20 29.89 1012 10 16 0.00 0.00
3:53 am 03:53 Mostly Clear 68 20 52 11.1 57 57 ESE 17 28 29.88 1012 10 16 0.00 0.00
4:53 am 04:53 Clear 68 20 51 10.6 55 55 E 14 22 29.87 1012 10 16 0.00 0.00
5:53 am 05:53 Sunny 65 18.3 51 10.6 61 61 E 12 19 29.87 1012 10 16 0.00 0.00
6:53 am 06:53 Sunny 70 21.1 52 11.1 53 53 E 6 9 29.87 1012 10 16 0.00 0.00
7:53 am 07:53 Sunny 74 23.3 53 11.7 48 48 SSE 8 13 29.87 1011 10 16 0.00 0.00
8:53 am 08:53 Sunny 78 25.6 52 11.1 40 40 Calm 29.86 1011 10 16 0.00 0.00
9:53 am 09:53 Sunny 81 27.2 54 12.2 39 39 WNW 9 15 29.86 1011 10 16 0.00 0.00
10:44 am 10:44 Sunny 84 29 50 10 31 31 SW 18 30 29.74 1007 10 16 0.00 0.00
10:53 am 10:53 Sunny 84 28.9 48 8.9 29 29 WSW 14 22 29.85 1011 10 16 0.00 0.00
11:53 am 11:53 Sunny 85 29.4 49 9.4 29 29 WSW 18 30 29.86 1011 10 16 0.00 0.00
12:53 pm 12:53 Sunny 88 31.1 48 8.9 25 25 SW 14 22 29.85 1011 10 16 0.00 0.00
1:53 pm 13:53 Sunny 89 31.7 43 6.1 20 20 SW 9 15 29.83 1010 10 16 0.00 0.00
2:53 pm 14:53 Sunny 92 33.3 39 3.9 16 16 SSW 16 26 29.80 1009 10 16 0.00 0.00
3:53 pm 15:53 Sunny 94 34.4 33 0.6 12 12 SSW 13 20 29.78 1009 10 16 0.00 0.00
4:53 pm 16:53 Sunny 96 35.6 33 0.6 11 11 S 9 15 29.77 1008 10 16 0.00 0.00
5:53 pm 17:53 Sunny 95 35 35 1.7 12 12 S 10 17 29.76 1008 10 16 0.00 0.00
6:53 pm 18:53 Sunny 94 34.4 37 2.8 14 14 S 7 11 29.74 1007 10 16 0.00 0.00
7:53 pm 19:53 Sunny 92 33.3 31 -0.6 11 11 SW 7 11 29.74 1007 10 16 0.00 0.00
8:53 pm 20:53 Sunny 82 27.8 42 5.6 24 24 SW 7 11 29.75 1007 10 16 0.00 0.00
9:53 pm 21:53 Clear 71 21.7 42 5.6 35 35 S 10 17 29.78 1008 10 16 0.00 0.00
10:53 pm 22:53 Clear 65 18.3 43 6.1 45 45 WSW 8 13 29.80 1009 10 16 0.00 0.00
11:53 pm 23:53 Clear 65 18.3 47 8.3 52 52 SE 3 6 29.81 1009 10 16 0.00 0.00

Powered by AerisWeather